Wind_Speed
25 25 25 25 25 25 25 25 24 24 24 24 24 25 25 24 25 25 26 26 26 27 28 29 29 29 29 31 32 32 34 35 35 36 37 38 37 38
25 25 25 25 25 25 25 25 25 25 25 25 24 24 24 25 25 26 26 26 27 27 28 28 29 30 29 30 31 32 33 33 34 35 36 38 38 37
25 25 26 25 25 25 25 25 25 25 25 25 25 25 24 24 25 26 26 27 27 27 27 27 27 28 30 29 30 31 32 32 33 34 35 36 37 37
24 25 24 25 25 24 24 24 24 24 25 25 25 25 25 25 25 26 26 26 26 26 26 26 26 27 28 29 30 30 31 32 32 32 34 35 36 37
23 23 23 23 24 24 24 24 24 24 24 24 25 25 25 25 24 24 25 25 26 26 26 26 27 27 27 28 29 30 31 31 32 32 33 33 34 35
23 23 23 23 23 23 23 24 24 24 24 24 25 25 25 25 24 24 24 24 25 26 25 25 26 27 27 27 28 30 31 31 31 31 32 33 33 35
23 23 23 23 22 23 23 23 23 23 23 23 24 24 24 24 24 24 24 24 25 25 24 24 25 26 27 27 27 28 29 30 30 31 31 32 33 34
23 23 23 23 23 23 23 23 24 24 24 24 24 24 24 24 24 25 25 24 24 24 24 24 25 25 26 26 26 26 27 28 29 30 31 32 33 34
23 23 23 23 23 23 23 23 24 24 24 25 25 25 25 25 25 24 24 24 24 24 24 23 23 23 24 24 25 25 26 27 28 29 30 31 32 33
23 23 23 23 23 23 24 24 24 24 24 25 25 25 25 25 25 24 23 23 24 24 24 22 22 22 23 23 24 25 26 26 28 29 29 30 31 32
24 24 24 24 24 23 24 24 24 24 24 25 26 26 25 25 24 24 23 23 23 22 21 21 21 22 22 22 22 23 24 25 26 27 28 29 30 31
25 25 24 24 24 24 23 23 24 24 24 25 25 25 24 23 23 23 23 22 21 21 21 21 21 21 21 22 22 22 23 23 24 25 26 27 28 30
25 24 24 23 23 22 22 23 23 23 23 24 23 23 22 21 21 20 20 20 20 21 21 21 21 21 21 21 22 23 23 23 24 25 26 27 28 28
25 25 24 22 22 23 23 23 23 22 22 21 21 20 19 19 19 19 19 20 20 20 20 21 20 20 21 21 22 23 24 24 25 25 26 26 27 27
25 25 24 23 23 24 23 23 22 22 21 20 19 19 19 19 19 19 19 19 19 20 20 21 21 21 22 22 22 23 24 24 24 25 25 26 27 27
26 26 25 25 24 24 23 22 22 22 21 20 20 19 19 18 18 17 18 18 18 19 20 20 21 22 22 23 24 24 24 24 23 24 24 25 26 27
25 25 25 25 25 24 24 24 23 22 20 20 19 18 17 17 17 17 18 19 19 20 20 21 21 22 23 24 24 24 24 24 23 23 23 24 25 26
25 25 25 26 26 26 25 24 24 22 21 20 19 19 17 17 17 17 18 18 19 20 21 20 21 22 22 23 22 23 22 22 22 22 22 22 23 24
25 26 26 27 26 26 25 24 24 22 21 20 19 19 18 18 18 18 19 20 20 21 21 20 21 21 22 22 22 21 21 21 21 21 21 21 22 23
25 26 26 26 26 25 25 24 24 22 21 21 21 20 19 18 18 20 20 20 20 21 20 20 20 20 19 20 20 20 21 21 21 21 21 21 21 22
26 26 26 26 25 25 25 24 24 23 22 20 21 20 19 19 19 19 20 20 20 20 20 19 19 19 19 19 20 20 20 20 20 20 21 21 21 21
27 27 27 26 26 25 25 24 24 23 22 21 20 20 20 19 19 19 20 20 20 20 20 20 19 19 19 19 20 21 20 20 20 19 19 19 19 20
28 27 27 27 26 26 25 24 23 23 21 21 21 21 21 20 20 20 20 20 20 20 20 20 20 20 20 20 20 20 19 19 19 19 19 19 18 18
Wind_Direction
301 300 299 297 293 291 291 291 290 289 288 287 285 282 280 278 276 276 276 275 274 272 269 266 264 262 260 259 257 254 252 251 250 248 247 247 246 247
301 301 300 298 295 293 292 292 290 290 289 287 288 284 279 277 277 276 275 276 276 273 271 269 266 262 261 258 255 254 252 252 251 250 248 248 248 248
303 302 300 298 297 295 294 292 290 290 290 288 288 287 283 280 279 277 276 277 278 275 272 270 267 264 261 260 256 254 253 252 251 250 249 249 248 248
306 305 304 302 301 298 297 294 292 292 291 290 289 289 286 283 283 280 277 278 277 276 275 272 269 266 263 259 255 253 253 252 251 251 251 250 248 247
310 309 307 306 304 300 298 297 294 292 291 290 288 288 288 287 285 281 280 279 277 277 277 274 272 267 264 260 256 254 255 254 253 252 251 249 248 247
313 312 310 307 305 301 298 298 295 294 292 291 288 288 288 287 284 282 279 278 278 277 276 276 274 270 266 262 260 257 256 255 254 253 252 250 248 248
314 313 312 309 305 302 301 299 297 296 295 293 291 290 290 288 285 283 280 278 278 278 275 274 273 270 266 264 261 258 256 255 255 255 254 253 252 250
316 315 313 309 306 305 303 301 300 298 296 295 293 291 289 287 288 286 282 279 279 278 277 276 274 270 266 264 264 262 260 257 257 256 255 255 254 253
318 317 316 316 312 309 307 305 303 301 298 297 295 291 288 285 287 286 284 281 281 279 278 277 275 272 269 266 264 263 263 261 259 257 258 257 255 254
320 319 317 316 314 311 308 306 305 303 300 299 297 294 290 288 286 285 285 284 280 280 278 276 276 274 271 269 267 266 263 262 261 259 259 257 256 254
321 319 319 318 315 313 310 307 305 303 302 301 298 295 292 288 284 284 284 284 282 279 280 279 277 274 272 272 271 269 266 264 263 261 259 258 256 255
323 322 322 319 316 315 313 309 306 304 303 301 299 295 291 287 286 284 283 283 280 277 278 278 276 274 273 273 273 271 269 265 263 262 260 259 258 256
327 326 325 323 320 318 315 313 311 308 306 304 300 296 293 289 287 285 283 283 279 277 276 276 275 274 274 273 273 271 269 267 265 263 262 260 259 258
328 328 327 326 324 322 318 316 315 314 312 308 303 300 297 292 288 286 284 283 282 280 280 279 278 278 278 276 274 273 272 269 267 265 263 262 261 260
332 331 329 328 326 324 322 320 318 317 314 312 308 303 299 296 291 287 286 286 284 284 283 280 278 278 278 278 277 275 273 272 272 269 266 264 263 262
333 333 332 331 331 328 326 325 323 322 319 315 311 306 302 298 294 290 286 283 283 283 284 282 280 279 278 278 278 278 277 275 275 271 268 266 265 263
335 336 335 334 332 332 331 329 327 324 320 318 315 310 305 300 297 293 290 286 284 285 287 287 285 283 280 279 278 278 278 275 274 273 270 269 266 264
336 336 335 334 334 334 333 331 329 327 323 320 319 313 306 300 298 297 296 294 292 291 291 287 285 284 283 282 280 278 277 276 273 272 271 270 267 265
337 337 337 336 335 334 334 333 331 329 327 325 322 317 310 303 300 300 299 297 297 296 293 288 286 284 282 280 278 277 276 275 272 271 272 269 268 267
337 337 338 338 338 337 336 335 333 331 328 327 325 323 318 310 305 303 301 298 297 297 294 291 288 286 285 282 280 278 277 276 275 274 273 270 269 269
339 339 339 339 338 338 335 335 334 333 331 327 326 323 320 315 310 307 306 303 300 298 296 292 289 286 284 283 282 281 280 277 274 273 273 272 270 270
340 339 340 340 339 337 334 334 333 332 332 329 327 326 323 318 314 311 309 307 304 301 298 293 289 285 284 284 284 282 281 277 274 272 272 272 273 273
340 340 340 340 338 337 336 334 332 331 332 332 330 328 326 322 317 313 310 309 306 304 301 295 289 286 283 282 284 283 281 277 273 272 270 269 270 270
Height
5736 5733 5730 5728 5726 5724 5722 5720 5720 5718 5717 5715 5714 5713 5711 5711 5710 5710 5709 5708 5708 5707 5707 5707 5707 5708 5709 5711 5712 5714 5716 5719 5722 5725 5729 5732 5735 5739
5730 5727 5724 5722 5719 5717 5715 5714 5712 5711 5709 5708 5707 5705 5704 5703 5702 5702 5701 5701 5700 5699 5699 5699 5699 5700 5701 5702 5703 5705 5707 5709 5712 5715 5719 5722 5725 5729
5724 5721 5718 5715 5713 5711 5709 5707 5705 5703 5702 5701 5699 5698 5696 5695 5695 5694 5693 5693 5692 5692 5691 5691 5691 5691 5692 5693 5695 5696 5698 5701 5703 5706 5709 5712 5715 5719
5718 5715 5712 5709 5707 5704 5702 5700 5699 5697 5695 5694 5692 5691 5690 5688 5687 5686 5686 5685 5684 5684 5683 5683 5683 5683 5684 5685 5686 5688 5690 5692 5694 5697 5699 5702 5705 5708
5713 5709 5707 5704 5701 5699 5696 5694 5692 5690 5688 5687 5686 5684 5683 5681 5680 5679 5678 5677 5676 5676 5676 5675 5675 5675 5676 5677 5678 5679 5681 5683 5685 5687 5689 5692 5695 5698
5708 5704 5701 5699 5696 5693 5691 5688 5686 5684 5682 5680 5679 5677 5676 5674 5673 5672 5671 5670 5669 5668 5668 5668 5668 5668 5668 5669 5670 5671 5672 5674 5676 5678 5680 5682 5685 5688
5703 5699 5696 5693 5690 5688 5685 5682 5680 5677 5675 5674 5672 5670 5669 5667 5666 5664 5663 5662 5662 5661 5660 5660 5660 5660 5660 5661 5661 5662 5664 5665 5667 5669 5671 5673 5675 5678
5698 5694 5691 5688 5685 5682 5679 5677 5674 5671 5669 5667 5665 5664 5662 5660 5658 5657 5656 5655 5655 5654 5653 5653 5652 5653 5653 5653 5653 5654 5655 5656 5658 5660 5662 5664 5666 5668
5693 5690 5686 5683 5680 5677 5674 5671 5668 5665 5663 5661 5658 5656 5655 5653 5651 5650 5649 5648 5647 5646 5646 5646 5645 5645 5645 5645 5646 5646 5647 5648 5650 5651 5652 5654 5656 5658
5689 5685 5681 5678 5674 5671 5668 5665 5662 5659 5656 5654 5651 5649 5647 5645 5644 5643 5642 5641 5640 5639 5638 5638 5638 5638 5637 5638 5638 5639 5639 5640 5641 5642 5643 5645 5646 5648
5684 5680 5676 5673 5669 5665 5662 5659 5656 5653 5649 5647 5644 5642 5640 5638 5637 5636 5635 5634 5633 5633 5631 5631 5631 5630 5630 5630 5630 5631 5631 5632 5633 5634 5635 5636 5637 5639
5680 5675 5671 5667 5663 5659 5656 5653 5650 5646 5643 5640 5637 5634 5632 5631 5629 5628 5627 5627 5626 5626 5625 5625 5624 5623 5623 5623 5623 5623 5624 5624 5625 5625 5626 5627 5628 5630
5675 5670 5666 5661 5657 5653 5650 5646 5643 5640 5637 5633 5631 5628 5626 5625 5623 5622 5621 5620 5620 5619 5619 5618 5617 5616 5616 5616 5616 5616 5616 5616 5617 5617 5618 5619 5620 5621
5671 5666 5661 5657 5653 5648 5645 5641 5637 5634 5631 5628 5625 5622 5620 5619 5617 5616 5615 5614 5613 5613 5612 5611 5610 5610 5610 5609 5609 5609 5608 5608 5609 5609 5610 5611 5611 5612
5667 5662 5657 5653 5649 5644 5640 5636 5632 5629 5625 5622 5619 5617 5615 5613 5611 5610 5609 5608 5607 5606 5605 5604 5603 5603 5603 5603 5602 5602 5601 5601 5601 5601 5601 5602 5603 5604
5663 5658 5654 5649 5644 5640 5635 5631 5627 5623 5620 5617 5614 5611 5609 5607 5606 5604 5603 5602 5601 5600 5599 5597 5597 5596 5596 5595 5595 5594 5593 5593 5593 5593 5593 5593 5594 5595
5659 5655 5650 5645 5641 5636 5631 5627 5622 5618 5614 5611 5608 5606 5604 5602 5600 5599 5597 5596 5595 5594 5593 5591 5590 5589 5588 5587 5587 5586 5585 5585 5585 5585 5585 5585 5586 5586
5656 5651 5646 5642 5637 5631 5627 5622 5617 5613 5610 5606 5603 5600 5598 5597 5595 5593 5592 5590 5589 5587 5586 5584 5583 5582 5581 5580 5579 5578 5578 5577 5577 5577 5577 5577 5578 5578
5652 5647 5642 5637 5632 5627 5622 5617 5613 5609 5605 5601 5598 5595 5593 5591 5589 5587 5585 5584 5582 5580 5578 5577 5576 5575 5574 5573 5572 5571 5571 5570 5570 5570 5570 5570 5570 5571
5649 5643 5638 5633 5628 5623 5618 5613 5609 5604 5601 5597 5594 5590 5588 5585 5583 5581 5579 5577 5575 5573 5572 5570 5569 5567 5566 5566 5565 5564 5563 5563 5563 5563 5563 5563 5563 5563
5645 5639 5634 5628 5623 5619 5614 5609 5605 5601 5597 5593 5589 5586 5583 5580 5577 5575 5573 5570 5568 5567 5565 5564 5562 5561 5560 5559 5558 5557 5557 5556 5556 5556 5556 5556 5556 5556
5641 5635 5630 5625 5620 5615 5610 5606 5601 5597 5593 5589 5585 5581 5577 5574 5571 5569 5567 5564 5562 5560 5558 5557 5555 5554 5553 5552 5551 5551 5550 5550 5549 5549 5549 5549 5549 5550
5638 5632 5626 5621 5616 5611 5606 5602 5597 5593 5589 5584 5580 5577 5573 5570 5566 5563 5561 5558 5556 5554 5552 5550 5549 5547 5546 5545 5544 5544 5543 5543 5543 5542 5543 5543 5543 5543